S51UL-6 Weather Reports


Display with metric or nautical units.
time (UTC)temp
F
wind
direction
speed
MPH
gust
MPH
rain 1hr
in
rain 24hr
in
rain mn
in
humidity
%
barometer
mb
20260504021857 45 338 0.0 0.0 0.00 0.00 0.00 77 1017.5
20260504020853 45 338 0.0 0.0 0.00 0.00 0.00 76 1017.4
20260504020354 45 338 0.0 0.0 0.00 0.00 0.00 76 1017.5
20260504014855 46 338 0.0 0.0 0.00 0.00 0.00 76 1017.5
20260504014354 46 338 0.0 0.0 0.00 0.00 0.00 76 1017.5
20260504013854 47 338 0.0 0.0 0.00 0.00 0.00 76 1017.5
20260504013357 47 338 0.0 0.0 0.00 0.00 0.00 76 1017.6
20260504012355 47 338 0.0 0.0 0.00 0.00 0.00 76 1017.4
20260504010855 47 338 0.0 0.0 0.00 0.00 0.00 75 1017.5
20260504004856 48 338 0.0 0.0 0.00 0.00 0.00 74 1017.4
20260504003855 49 338 0.0 0.0 0.00 0.00 0.00 73 1017.4
20260504003355 49 338 0.0 0.0 0.00 0.00 0.00 73 1017.3
20260504002855 49 270 0.0 0.0 0.00 0.00 0.00 73 1017.4
20260504002356 49 270 0.0 0.0 0.00 0.00 0.00 72 1017.3
20260504001855 49 270 0.0 0.0 0.00 0.00 0.00 72 1017.4
20260504001355 50 270 0.0 0.0 0.00 0.00 0.00 72 1017.4
20260504000855 50 270 0.0 0.0 0.00 0.00 0.00 71 1017.4
20260503235856 50 270 0.0 0.0 0.00 0.00 0.00 70 1017.2
20260503234855 51 225 0.0 0.0 0.00 0.00 0.00 69 1017.1
20260503234355 52 225 0.0 0.0 0.00 0.00 0.00 68 1017.0
20260503233855 53 180 0.0 0.0 0.00 0.00 0.00 67 1017.1
20260503233355 53 180 0.0 0.0 0.00 0.00 0.00 67 1016.8
20260503232856 54 180 0.0 0.0 0.00 0.00 0.00 66 1017.0
20260503231855 54 180 0.0 0.0 0.00 0.00 0.00 66 1017.0
20260503231356 54 180 0.0 0.0 0.00 0.00 0.00 65 1016.8
20260503230856 54 180 0.0 0.0 0.00 0.00 0.00 64 1017.0
20260503230356 54 180 0.0 0.0 0.00 0.00 0.00 65 1017.0
20260503225859 54 180 0.0 0.0 0.00 0.00 0.00 65 1017.0
20260503225359 55 180 0.0 0.0 0.00 0.00 0.00 65 1017.0
20260503224856 55 180 0.0 0.0 0.00 0.00 0.00 65 1017.0
20260503223856 55 180 0.0 0.0 0.00 0.00 0.00 64 1017.1
20260503223356 55 180 0.0 0.0 0.00 0.00 0.00 64 1017.1
20260503222856 55 180 0.0 0.0 0.00 0.00 0.00 63 1017.0
20260503222356 55 180 0.0 0.0 0.00 0.00 0.00 63 1017.1
20260503221859 55 180 0.0 0.0 0.00 0.00 0.00 62 1017.1
20260503221358 55 180 0.0 0.0 0.00 0.00 0.00 62 1017.1
20260503215357 56 158 0.0 0.0 0.00 0.00 0.00 61 1017.0
20260503214856 56 158 0.0 0.0 0.00 0.00 0.00 61 1017.2
20260503214357 56 180 0.0 0.0 0.00 0.00 0.00 61 1017.0
20260503212857 56 135 0.0 0.0 0.00 0.00 0.00 61 1017.1
20260503211857 56 113 0.0 0.0 0.00 0.00 0.00 60 1017.1
20260503210858 57 135 0.0 0.0 0.00 0.00 0.00 59 1017.2
20260503210357 57 180 0.0 0.0 0.00 0.00 0.00 59 1017.1
20260503205859 57 180 0.0 0.0 0.00 0.00 0.00 59 1017.2
20260503204858 57 113 0.0 0.0 0.00 0.00 0.00 58 1017.1
20260503204357 58 135 0.0 0.0 0.00 0.00 0.00 58 1017.1
20260503203900 58 135 0.0 0.0 0.00 0.00 0.00 57 1017.1
20260503203358 58 135 0.0 0.0 0.00 0.00 0.00 57 1017.3
20260503202358 59 203 0.0 0.0 0.00 0.00 0.00 56 1017.1
20260503201857 59 90 0.0 0.0 0.00 0.00 0.00 55 1017.3
20260503201358 60 158 0.0 0.0 0.00 0.00 0.00 55 1017.3
20260503200858 60 158 0.0 0.0 0.00 0.00 0.00 54 1017.2
20260503195905 60 158 0.0 0.0 0.00 0.00 0.00 55 1017.3
20260503194400 60 180 0.0 0.0 0.00 0.00 0.00 54 1017.4
20260503192859 60 158 0.0 0.0 0.00 0.00 0.00 50 1017.4
20260503191858 61 158 0.0 0.0 0.00 0.00 0.00 49 1017.2
20260503191359 62 158 0.0 0.0 0.00 0.00 0.00 49 1017.1
20260503190902 62 158 0.0 0.0 0.00 0.00 0.00 48 1017.3
20260503190359 62 158 0.0 0.0 0.00 0.00 0.00 48 1017.2
20260503184401 64 158 0.0 0.0 0.00 0.00 0.00 47 1017.0
20260503183859 65 158 0.0 0.0 0.00 0.00 0.00 47 1017.0
20260503182900 65 158 0.0 0.0 0.00 0.00 0.00 46 1016.7
20260503181859 67 158 0.0 2.0 0.00 0.00 0.00 45 1016.7
20260503180901 68 135 0.0 1.0 0.00 0.00 0.00 43 1016.5
20260503180402 68 135 0.0 2.0 0.00 0.00 0.00 43 1016.4
20260503174400 69 158 2.0 4.0 0.00 0.00 0.00 42 1016.3
20260503173902 70 135 1.0 4.0 0.00 0.00 0.00 41 1016.5
20260503171903 71 135 1.0 6.0 0.00 0.00 0.00 40 1016.4
20260503171402 72 158 3.0 6.0 0.00 0.00 0.00 40 1016.3
20260503170901 72 135 3.0 5.0 0.00 0.00 0.00 40 1016.2
20260503150401 76 158 8.0 10.0 0.00 0.00 0.00 38 1016.5
20260503130402 79 135 5.0 15.0 0.00 0.00 0.00 37 1017.8
20260503110404 78 180 5.0 9.0 0.00 0.00 0.00 37 1018.9
20260503090406 73 135 0.0 2.0 0.00 0.00 0.00 48 1020.1
20260503081406 69 135 1.0 4.0 0.00 0.00 0.00 55 1020.3
20260503080906 68 135 2.0 5.0 0.00 0.00 0.00 53 1020.5
20260503080406 68 180 2.0 5.0 0.00 0.00 0.00 55 1020.2
20260503072408 59 158 0.0 0.0 0.00 0.00 0.00 71 1020.4
20260503071906 58 158 0.0 0.0 0.00 0.00 0.00 72 1020.5
20260503071407 57 158 0.0 0.0 0.00 0.00 0.00 73 1020.5
20260503070906 56 203 0.0 0.0 0.00 0.00 0.00 74 1020.5
20260503054907 45 203 0.0 0.0 0.00 0.00 0.00 85 1020.0
20260503054408 45 203 0.0 0.0 0.00 0.00 0.00 86 1020.1
20260503053908 44 203 0.0 0.0 0.00 0.00 0.00 86 1020.0
20260503052906 43 203 0.0 0.0 0.00 0.00 0.00 86 1020.1
20260503051408 41 203 0.0 0.0 0.00 0.00 0.00 85 1020.0
20260503050408 40 203 0.0 0.0 0.00 0.00 0.00 84 1020.1
20260503045409 39 203 0.0 0.0 0.00 0.00 0.00 84 1020.2
20260503044908 39 203 0.0 0.0 0.00 0.00 0.00 84 1020.1
20260503044409 38 203 0.0 0.0 0.00 0.00 0.00 84 1020.1
20260503042908 38 203 0.0 0.0 0.00 0.00 0.00 84 1019.9
20260503042408 38 203 0.0 0.0 0.00 0.00 0.00 84 1020.0
20260503041909 38 203 0.0 0.0 0.00 0.00 0.00 83 1020.0
20260503041408 38 203 0.0 0.0 0.00 0.00 0.00 83 1019.9
20260503040911 38 203 0.0 0.0 0.00 0.00 0.00 83 1020.0
20260503035909 38 203 0.0 0.0 0.00 0.00 0.00 83 1019.9
20260503035409 38 203 0.0 0.0 0.00 0.00 0.00 83 1020.0
20260503033407 38 203 0.0 0.0 0.00 0.00 0.00 83 1019.8
20260503032409 38 203 0.0 0.0 0.00 0.00 0.00 83 1019.7
20260503031910 38 203 0.0 0.0 0.00 0.00 0.00 82 1019.8
20260503031409 38 203 0.0 0.0 0.00 0.00 0.00 82 1019.7
20260503030410 38 203 0.0 0.0 0.00 0.00 0.00 82 1019.7
20260503025910 38 203 0.0 0.0 0.00 0.00 0.00 82 1019.6
20260503025410 38 203 0.0 0.0 0.00 0.00 0.00 82 1019.8
20260503024909 39 203 0.0 0.0 0.00 0.00 0.00 82 1020.0
20260503024409 39 203 0.0 0.0 0.00 0.00 0.00 82 1019.8
20260503023910 39 203 0.0 0.0 0.00 0.00 0.00 82 1019.8
20260503023409 39 203 0.0 0.0 0.00 0.00 0.00 82 1019.9